This is the latest recevied weather packets stored in our database for station/object DL9GJ-4. If no packets are shown the sender has not sent any weather packets the latest 10 day(s).
| Time | Temp. | Humidity | Pressure | Rain* | Wind** | Luminosity | Snow |
|---|---|---|---|---|---|---|---|
| 1787403667 | 17.22° C | 25% | 1018 hPa | 0 mm | - | - | - |
| 1787403303 | 17.78° C | 25% | 1018 hPa | 0 mm | - | - | - |
| 1787402941 | 17.22° C | 26% | 1018 hPa | 0 mm | - | - | - |
| 1787402583 | 17.22° C | 24% | 1018 hPa | 0 mm | - | - | - |
| 1787401491 | 17.22° C | 27% | 1018 hPa | 0 mm | - | - | - |
| 1787401127 | 16.67° C | 33% | 1018 hPa | 0 mm | - | - | - |
| 1787400764 | 16.67° C | 33% | 1018 hPa | 0 mm | - | - | - |
| 1787400401 | 16.11° C | 33% | 1018 hPa | 0 mm | - | - | - |
| 1787399677 | 16.11° C | 31% | 1018 hPa | 0 mm | - | - | - |
| 1787399314 | 16.67° C | 30% | 1018 hPa | 0 mm | - | - | - |
| 1787398952 | 16.67° C | 27% | 1018 hPa | 0 mm | - | - | - |
| 1787398230 | 17.22° C | 27% | 1018 hPa | 0 mm | - | - | - |
| 1787397866 | 17.22° C | 33% | 1018 hPa | 0 mm | - | - | - |
| 1787397507 | 16.67° C | 34% | 1018 hPa | 0 mm | - | - | - |
| 1787397143 | 16.67° C | 33% | 1018 hPa | 0 mm | - | - | - |
| 1787396780 | 16.11° C | 34% | 1018 hPa | 0 mm | - | - | - |
| 1787396051 | 15° C | 36% | 1018 hPa | 0 mm | - | - | - |
| 1787395690 | 15° C | 35% | 1018 hPa | 0 mm | - | - | - |
| 1787395329 | 16.11° C | 35% | 1018 hPa | 0 mm | - | - | - |
| 1787394969 | 16.11° C | 40% | 1018 hPa | 0 mm | - | - | - |
| 1787394606 | 15.56° C | 42% | 1018 hPa | 0 mm | - | - | - |
| 1787394285 | 15° C | 38% | 1018 hPa | 0 mm | - | - | - |
| 1787394245 | 15° C | 38% | 1018 hPa | 0 mm | - | - | - |
| 1787393159 | 15.56° C | 37% | 1018 hPa | 0 mm | - | - | - |
| 1787392428 | 15.56° C | 34% | 1018 hPa | 0 mm | - | - | - |
* Rain latest hour (hover to see other rain measurements)
** Current wind speed in m/s (hover to see current wind gust speed)